Terminal Aerodrome Forecast
Issued by NWS Northern Indiana

Home | Current Version | Previous Version | Graphics & Text | Print | Product List | Glossary On
Versions: 1 2 3 4 5 6 7 8 9 10 11 12 13 14
000
FTUS43 KIWX 210500
TAFFWA
TAF
KFWA 210536Z 2106/2206 36005KT P6SM OVC060
     FM211600 29010KT P6SM BKN080
     FM212100 29012G17KT P6SM BKN120=

USA.gov is the U.S. government's official web portal to all federal, state and local government web resources and services.